Regional Weather Roundup
Issued by NWS

Home | Current Version | Previous Version | Graphics & Text | Print | Product List | Glossary On
Versions: 1 2 3 4 5 6 7 8 9 10 11 12 13 14 15 16 17 18 19 20 21 22 23 24 25 26 27 28 29 30 31 32 33 34 35 36 37 38 39 40 41 42 43 44 45 46 47 48 49 50
084
ASUS45 KCYS 072110
RWRWY

WYOMING REGIONAL WEATHER ROUNDUP
NATIONAL WEATHER SERVICE CHEYENNE WY
200 PM MST WED DEC 07 2016

NOTE:  "FAIR" INDICATES FEW OR NO CLOUDS BELOW 12,000 FEET
WITH NO SIGNIFICANT WEATHER AND/OR OBSTRUCTIONS TO VISIBILITY.

WYZ001-072200-
YELLOWSTONE NATIONAL PARK

CITY           SKY/WX    TMP DP  RH WIND       PRES   REMARKS
LK YELLOWSTONE   N/A      7  -2  66 VRB5      30.06R WCI  -2
W YELLOWSTONE  NOT AVBL

$$
WYZ002>013-054>058-071-098>099-072200-
NORTHERN WYOMING

CITY           SKY/WX    TMP DP  RH WIND       PRES   REMARKS
JACKSON        FAIR       9   1  72 S3        30.15S
CODY           FAIR      10  -2  58 CALM      30.30R
GREYBULL       CLOUDY    13   1  59 E9        30.37R WCI   1
WORLAND        FAIR      11   0  61 NW8       30.35R WCI  -1
SHERIDAN       FAIR       6  -4  63 W8        30.38R WCI  -7
BUFFALO        CLOUDY     4  -6  63 N3        30.29R
GILLETTE       CLOUDY     2  -4  76 W9        30.33R WCI -13
HULETT         CLOUDY     5  -4  66 MISG      30.32R
NEWCASTLE      MOCLDY     3  -6  66 NW15      30.34R WCI -15

$$
WYZ014>020-022>026-101>103-072200-
CENTRAL WYOMING

CITY           SKY/WX    TMP DP  RH WIND       PRES   REMARKS
BIG PINEY      FAIR      11   0  61 VRB3      30.12R
PINEDALE       FAIR      10   0  61 CALM      30.12R
DUBOIS         FAIR       3  -4  72 CALM      30.06R
LANDER         FAIR      11   0  61 S3        30.21S
RIVERTON       CLOUDY     9   0  67 CALM      30.23R
CASPER         FAIR       3  -4  72 SW5       30.24S WCI  -6
DOUGLAS        FAIR       6  -3  66 NW12      30.28R WCI  -9

$$
WYZ021-027>030-104>119-072200-
SOUTHERN WYOMING

CITY           SKY/WX    TMP DP  RH WIND       PRES   REMARKS
EVANSTON       FAIR      15   1  53 VRB7      30.11S WCI   5
FORT BRIDGER   FAIR      17   3  54 NW7       30.15S WCI   7
ROCK SPRINGS   FAIR      10   2  69 W3        30.13S
DIXON          FAIR      14  -1  51 W6        30.18R WCI   5
RAWLINS        FAIR       8  -4  58 W5        30.12R WCI   0
SARATOGA       CLOUDY     9   0  66 W6        30.12R WCI  -1
LARAMIE        FAIR       4  -5  66 N9        30.05R WCI -10
CHEYENNE       FAIR       6  -4  63 N15       30.14R WCI -12
TORRINGTON     FAIR      11  -3  53 NW15G23   30.31R WCI  -5
PINE BLUFFS    FAIR       9   0  66 NW16      30.23R WCI  -9

$$




USA.gov is the U.S. government's official web portal to all federal, state and local government web resources and services.